CST,Max TemperatureF,Mean TemperatureF,Min TemperatureF,Max Dew PointF,MeanDew PointF,Min DewpointF,Max Humidity, Mean Humidity, Min Humidity, Max Sea Level PressureIn, Mean Sea Level PressureIn, Min Sea Level PressureIn, Max VisibilityMiles, Mean VisibilityMiles, Min VisibilityMiles, Max Wind SpeedMPH, Mean Wind SpeedMPH, Max Gust SpeedMPH,PrecipitationIn, CloudCover, Events, WindDirDegrees
2012-12-1,65,48,30,50,39,30,100,86,45,30.38,30.31,30.26,10,5,0,12,1,,0.00,1,Fog,179
2012-12-2,68,62,56,51,49,45,69,61,53,30.27,30.24,30.19,10,10,8,24,12,,0.00,3,,192
2012-12-3,72,62,52,54,50,46,86,68,51,30.28,30.23,30.18,10,10,10,14,5,,0.00,2,,191
2012-12-4,68,60,46,59,55,43,100,84,61,30.26,30.19,30.12,10,7,1,20,9,,0.15,6,Rain,201
2012-12-5,56,45,32,45,38,31,97,80,44,30.36,30.30,30.23,10,10,9,14,5,,0.00,2,Rain,15
2012-12-6,54,42,30,52,41,29,100,91,77,30.22,30.17,30.10,10,8,2,7,1,,0.00,6,Rain,146
2012-12-7,,,,,,,,,,,,,,,,,,,0.00,,,-1
2012-12-8,,,,,,,,,,,,,,,,,,,0.00,,,-1
2012-12-9,,,,,,,,,,,,,,,,,,,0.00,,Thunderstorm,-1
2012-12-10,,,,,,,,,,,,,,,,,,,0.00,,Thunderstorm,-1
2012-12-11,,,,,,,,,,,,,,,,,,,0.00,,,-1
2012-12-12,,,,,,,,,,,,,,,,,,,0.00,,,-1
2012-12-13,50,38,27,31,27,25,92,61,38,30.40,30.36,30.32,10,8,6,0,0,,0.00,0,,-1
2012-12-14,56,44,32,33,30,29,96,69,35,30.27,30.23,30.21,10,10,10,0,0,,0.00,0,,-1
2012-12-15,54,52,52,41,40,40,63,62,60,30.09,30.09,30.09,10,10,10,10,10,,0.00,1,,160
2012-12-16,59,,59,54,54,54,83,83,83,29.83,29.83,29.83,,,,,,,0.00,,,-1
2012-12-17,55,55,48,55,53,48,100,99,96,29.68,29.66,29.65,10,6,2,14,10,22,0.00,,Rain-Thunderstorm,265
2012-12-18,48,41,34,34,31,29,85,61,50,29.94,29.90,29.88,10,10,10,15,5,,0.00,0,,222
2012-12-19,60,46,32,45,40,32,96,69,51,30.10,30.03,29.95,10,10,10,48,6,92,0.00,0,,172
2012-12-20,57,46,34,48,43,27,100,83,49,29.93,29.65,29.50,10,5,1,33,19,45,0.60,7,Rain,183
2012-12-21,38,33,27,28,22,16,93,69,51,30.25,30.00,29.82,10,8,2,23,17,33,0.00,4,Snow,283
2012-12-22,38,28,17,19,17,14,92,72,45,30.29,30.25,30.14,10,10,10,12,6,,0.00,0,,256
2012-12-23,52,36,21,45,38,16,100,84,41,30.17,30.03,29.96,10,8,2,13,6,,0.04,6,Rain,188
2012-12-24,52,46,39,50,45,39,100,98,87,29.97,29.87,29.82,10,4,1,9,6,,0.34,7,Rain,171
2012-12-25,39,36,33,39,35,33,100,97,87,30.13,30.03,29.74,7,2,0,20,9,,0.28,8,Fog-Rain,33
2012-12-26,41,36,30,41,33,29,100,94,85,30.05,29.70,29.53,10,4,1,22,15,30,0.05,8,Rain-Snow,278
2012-12-27,32,31,30,28,27,25,92,84,79,30.22,30.17,30.07,10,10,10,15,8,,0.00,8,,342
2012-12-28,37,34,30,37,32,26,100,92,73,30.17,29.95,29.76,10,6,1,16,6,,0.17,7,Rain,75
2012-12-29,37,32,26,38,31,21,100,92,75,30.37,29.97,29.75,10,6,1,18,9,,0.11,8,Rain-Snow,301
2012-12-30,36,28,18,23,20,18,100,79,57,30.53,30.46,30.37,10,10,7,14,6,,0.00,3,,313
2012-12-31,37,27,17,36,28,16,100,90,76,30.43,30.32,30.18,10,9,2,5,1,,0.00,2,Rain,200